Tracking 30743 objects as of 21-Jun-2025
HD Live streaming from Space Station
objects crossing your sky now

NOAA 16 DEB

Track NOAA 16 DEB now!
10-day predictions


NORAD ID: 41374
Int'l Code: 2000-055JT
Perigee: 814.5 km
Apogee: 866.7 km
Inclination: 98.7 °
Period: 101.6 minutes
Semi major axis: 7211 km
RCS: Unknown
Launch date: September 21, 2000
Source: United States (US)
Launch site: AIR FORCE WESTERN TEST RANGE (AFWTR)

Note: This is SATELLITE DEBRIS
Your satellite tracking list
Your tracking list is empty




NASA's NSSDC Master Catalog

Two Line Element Set (TLE):
1 41374U 00055JT  25168.08608679  .00002360  00000-0  11744-2 0  9995
2 41374  98.7318 218.2412 0036211 134.6707 225.7429 14.17608696483697
Source of the keplerian elements: AFSPC